This demonstration page uses our WeatherBlox Daily Observations layout. Learn more.

Left ArrowRight Arrow

39.01783, -85.05884

Hourly Observations for February 3, 2016

Temp ( °F °C ) Dew Point ( °F °C ) Humidity (%) Winds ( mph kmh ) Pressure ( in mb ) Visibility ( mi km ) Precip ( " mm )
12:15 am 00:15 Cloudy with Rain 59 15 57 14 94 94 S 24 39 29.56 1001 5 8 0.07 1.78
12:52 am 00:52 Cloudy with Rain 59 15 57 13.9 93 93 W 14 22 29.63 1004 3 5 0.15 3.81
12:56 am 00:56 Cloudy with Heavy Rain 59 15 57 14 94 94 SW 6 9 29.59 1002 1 2 0.18 4.57
12:59 am 00:59 Cloudy with Heavy Rain 59 15 57 14 94 94 SSW 5 7 29.59 1002 1 2 0.24 6.10
1:18 am 01:18 Cloudy with Heavy Rain 59 15 57 14 94 94 S 7 11 29.59 1002 3 5 N/A
1:52 am 01:52 Cloudy with Heavy Rain 60 15.6 56 13.3 86 86 SSW 14 22 29.60 1002 4 6 0.54 13.72
2:52 am 02:52 Cloudy 58 14.4 55 12.8 90 90 S 15 24 29.58 1002 10 16 0.12 3.05
3:52 am 03:52 Cloudy 59 15 54 12.2 83 83 SSW 10 17 29.57 1001 10 16 N/A
4:52 am 04:52 Cloudy 58 14.4 56 13.3 93 93 S 10 17 29.58 1002 10 16 N/A
5:52 am 05:52 Cloudy 59 15 56 13.3 90 90 SSW 13 20 29.62 1003 10 16 N/A
6:52 am 06:52 Cloudy 58 14.4 53 11.7 84 84 SW 10 17 29.65 1004 10 16 N/A
7:52 am 07:52 Cloudy 56 13.3 48 8.9 75 75 SSW 15 24 29.67 1005 10 16 N/A
8:52 am 08:52 Partly Cloudy 54 12.2 40 4.4 59 59 SW 14 22 29.69 1005 10 16 N/A
9:52 am 09:52 Mostly Sunny 55 12.8 39 3.9 55 55 SSW 20 31 29.70 1006 10 16 N/A
10:52 am 10:52 Mostly Sunny 56 13.3 35 1.7 46 46 SW 20 31 29.71 1006 10 16 N/A
11:52 am 11:52 Mostly Sunny 56 13.3 33 0.6 42 42 SW 23 37 29.72 1007 10 16 N/A
12:52 pm 12:52 Mostly Sunny 58 14.4 34 1.1 41 41 WSW 14 22 29.72 1007 10 16 N/A
1:52 pm 13:52 Mostly Sunny 56 13.3 30 -1.1 37 37 SW 18 30 29.73 1007 10 16 N/A
2:52 pm 14:52 Mostly Sunny 56 13.3 30 -1.1 37 37 SW 16 26 29.75 1008 10 16 N/A
3:52 pm 15:52 Mostly Sunny 52 11.1 34 1.1 50 50 W 20 31 29.79 1009 10 16 N/A
4:52 pm 16:52 Mostly Sunny 48 8.9 32 undefined 54 54 W 17 28 29.84 1011 10 16 N/A
5:52 pm 17:52 Partly Cloudy 43 6.1 30 -1.1 60 60 W 20 31 29.90 1013 10 16 N/A
6:52 pm 18:52 Partly Cloudy 41 5 28 -2.2 60 60 W 18 30 29.94 1014 10 16 N/A
7:52 pm 19:52 Mostly Cloudy 41 5 28 -2.2 60 60 W 20 31 29.97 1015 10 16 N/A
8:43 pm 20:43 Cloudy 39 4 30 -1 70 70 W 21 33 30.03 1017 10 16 N/A
8:52 pm 20:52 Cloudy 39 3.9 30 -1.1 70 70 W 22 35 30.00 1016 10 16 N/A
9:17 pm 21:17 Cloudy 39 4 28 -2 65 65 W 14 22 30.03 1017 10 16 N/A
9:52 pm 21:52 Cloudy 39 3.9 27 -2.8 62 62 W 13 20 30.01 1016 10 16 N/A
10:52 pm 22:52 Cloudy 38 3.3 29 -1.7 70 70 WNW 12 19 30.04 1017 10 16 N/A
11:52 pm 23:52 Cloudy 36 2.2 29 -1.7 76 76 W 21 33 30.06 1018 10 16 N/A

Powered by AerisWeather